Time,TemperatureF,DewpointF,PressureIn,WindDirection,WindDirectionDegrees,WindSpeedMPH,WindSpeedGustMPH,Humidity,HourlyPrecipIn,Conditions,Clouds,dailyrainin,SoftwareType,DateUTC
2013-07-02 00:01:00,64.5,63.6,29.89,East,96,0.0,0.0,97,0.00,,,0.36,Wunderground v.1.15,2013-07-02 04:01:00,
2013-07-02 00:06:00,64.3,63.4,29.89,East,96,0.0,0.0,97,0.00,,,0.36,Wunderground v.1.15,2013-07-02 04:06:00,
2013-07-02 00:11:00,64.3,63.4,29.89,East,96,0.0,0.0,97,0.00,,,0.36,Wunderground v.1.15,2013-07-02 04:11:00,
2013-07-02 00:16:00,64.2,63.3,29.90,East,96,0.0,0.0,97,0.00,,,0.36,Wunderground v.1.15,2013-07-02 04:16:00,
2013-07-02 00:21:00,64.3,63.4,29.90,East,96,0.0,1.0,97,0.00,,,0.36,Wunderground v.1.15,2013-07-02 04:21:00,
2013-07-02 00:26:00,64.3,63.7,29.90,East,96,0.0,1.0,98,0.00,,,0.36,Wunderground v.1.15,2013-07-02 04:26:00,
2013-07-02 00:31:00,64.3,63.7,29.90,East,96,0.0,0.0,98,0.00,,,0.36,Wunderground v.1.15,2013-07-02 04:31:00,
2013-07-02 00:36:00,64.5,63.9,29.90,East,96,0.0,0.0,98,0.00,,,0.36,Wunderground v.1.15,2013-07-02 04:36:00,
2013-07-02 00:41:00,64.5,63.9,29.90,East,96,0.0,0.0,98,0.00,,,0.36,Wunderground v.1.15,2013-07-02 04:41:00,
2013-07-02 00:46:00,64.5,63.9,29.90,East,96,0.0,0.0,98,0.00,,,0.36,Wunderground v.1.15,2013-07-02 04:46:00,
2013-07-02 00:51:00,64.5,63.9,29.90,East,96,0.0,0.0,98,0.00,,,0.36,Wunderground v.1.15,2013-07-02 04:51:00,
2013-07-02 00:56:00,64.5,63.9,29.90,East,96,0.0,0.0,98,0.00,,,0.36,Wunderground v.1.15,2013-07-02 04:56:00,
2013-07-02 01:01:00,64.5,63.9,29.90,East,96,0.0,0.0,98,0.00,,,0.36,Wunderground v.1.15,2013-07-02 05:01:00,
2013-07-02 01:06:00,64.5,63.9,29.90,East,96,0.0,0.0,98,0.00,,,0.36,Wunderground v.1.15,2013-07-02 05:06:00,
2013-07-02 01:11:00,64.5,63.9,29.90,East,96,0.0,0.0,98,0.00,,,0.36,Wunderground v.1.15,2013-07-02 05:11:00,
2013-07-02 01:16:00,64.7,64.1,29.89,East,96,0.0,0.0,98,0.00,,,0.36,Wunderground v.1.15,2013-07-02 05:16:00,
2013-07-02 01:21:00,64.7,64.1,29.89,East,96,0.0,0.0,98,0.00,,,0.36,Wunderground v.1.15,2013-07-02 05:21:00,
2013-07-02 01:26:00,64.7,64.1,29.89,East,96,0.0,0.0,98,0.00,,,0.36,Wunderground v.1.15,2013-07-02 05:26:00,
2013-07-02 01:31:00,64.7,64.1,29.89,East,96,0.0,1.0,98,0.00,,,0.00,Wunderground v.1.15,2013-07-02 05:31:00,
2013-07-02 01:36:00,64.5,63.9,29.89,East,96,0.0,1.0,98,0.00,,,0.00,Wunderground v.1.15,2013-07-02 05:36:00,
2013-07-02 01:41:00,64.5,64.2,29.89,East,96,0.0,0.0,99,0.00,,,0.00,Wunderground v.1.15,2013-07-02 05:41:00,
2013-07-02 01:46:00,64.3,63.7,29.90,East,96,3.0,4.0,98,0.00,,,0.00,Wunderground v.1.15,2013-07-02 05:46:00,
2013-07-02 01:51:00,64.3,64.0,29.90,East,96,3.0,5.0,99,0.00,,,0.00,Wunderground v.1.15,2013-07-02 05:51:00,
2013-07-02 01:56:00,64.3,64.0,29.90,ESE,112,3.0,6.0,99,0.00,,,0.00,Wunderground v.1.15,2013-07-02 05:56:00,
2013-07-02 02:01:00,64.5,64.2,29.91,East,98,5.0,5.0,99,0.00,,,0.00,Wunderground v.1.15,2013-07-02 06:01:00,
2013-07-02 02:06:00,64.5,64.2,29.91,ESE,105,0.0,5.0,99,0.00,,,0.00,Wunderground v.1.15,2013-07-02 06:06:00,
2013-07-02 02:11:00,64.3,64.0,29.91,ESE,105,0.0,1.0,99,0.00,,,0.01,Wunderground v.1.15,2013-07-02 06:11:00,
2013-07-02 02:16:00,64.3,64.0,29.91,ESE,105,0.0,3.0,99,0.00,,,0.01,Wunderground v.1.15,2013-07-02 06:16:00,
2013-07-02 02:21:00,64.3,64.0,29.91,ESE,105,0.0,0.0,99,0.00,,,0.01,Wunderground v.1.15,2013-07-02 06:21:00,
2013-07-02 02:26:00,64.3,64.0,29.91,ESE,105,0.0,0.0,99,0.00,,,0.02,Wunderground v.1.15,2013-07-02 06:26:00,
2013-07-02 02:32:00,64.3,64.0,29.90,ESE,105,0.0,0.0,99,0.00,,,0.02,Wunderground v.1.15,2013-07-02 06:32:00,
2013-07-02 02:37:00,64.5,64.2,29.90,ESE,105,0.0,0.0,99,0.00,,,0.02,Wunderground v.1.15,2013-07-02 06:37:00,
2013-07-02 02:41:00,64.3,64.0,29.90,ESE,105,0.0,0.0,99,0.00,,,0.02,Wunderground v.1.15,2013-07-02 06:41:00,
2013-07-02 02:47:00,64.3,64.0,29.89,ESE,105,0.0,0.0,99,0.00,,,0.02,Wunderground v.1.15,2013-07-02 06:47:00,
2013-07-02 02:52:00,64.3,64.0,29.89,ESE,105,0.0,0.0,99,0.00,,,0.02,Wunderground v.1.15,2013-07-02 06:52:00,
2013-07-02 02:57:00,64.3,64.0,29.89,ESE,105,0.0,0.0,99,0.00,,,0.02,Wunderground v.1.15,2013-07-02 06:57:00,
2013-07-02 03:02:00,64.3,64.0,29.90,ESE,105,0.0,0.0,99,0.00,,,0.02,Wunderground v.1.15,2013-07-02 07:02:00,
2013-07-02 03:07:00,64.3,64.0,29.90,ESE,105,0.0,0.0,99,0.00,,,0.02,Wunderground v.1.15,2013-07-02 07:07:00,
2013-07-02 03:12:00,64.3,64.0,29.90,ESE,105,0.0,1.0,99,0.00,,,0.02,Wunderground v.1.15,2013-07-02 07:12:00,
2013-07-02 03:17:00,64.3,64.0,29.90,ESE,105,0.0,1.0,99,0.00,,,0.02,Wunderground v.1.15,2013-07-02 07:17:00,
2013-07-02 03:22:00,64.3,64.0,29.90,ESE,105,0.0,1.0,99,0.00,,,0.02,Wunderground v.1.15,2013-07-02 07:22:00,
2013-07-02 03:27:00,64.3,64.0,29.90,ESE,105,0.0,1.0,99,0.00,,,0.02,Wunderground v.1.15,2013-07-02 07:27:00,
2013-07-02 03:32:00,64.3,64.0,29.90,ESE,105,0.0,0.0,99,0.00,,,0.02,Wunderground v.1.15,2013-07-02 07:32:00,
2013-07-02 03:37:00,64.3,64.0,29.90,ESE,105,0.0,0.0,99,0.00,,,0.02,Wunderground v.1.15,2013-07-02 07:37:00,
2013-07-02 03:42:00,64.3,64.0,29.90,ESE,105,0.0,0.0,99,0.00,,,0.02,Wunderground v.1.15,2013-07-02 07:42:00,
2013-07-02 03:47:00,64.2,63.9,29.89,ESE,105,0.0,0.0,99,0.00,,,0.02,Wunderground v.1.15,2013-07-02 07:47:00,
2013-07-02 03:52:00,64.3,64.0,29.89,ESE,105,0.0,1.0,99,0.00,,,0.02,Wunderground v.1.15,2013-07-02 07:52:00,
2013-07-02 03:57:00,64.3,64.0,29.89,ESE,105,0.0,1.0,99,0.00,,,0.02,Wunderground v.1.15,2013-07-02 07:57:00,
2013-07-02 04:02:00,64.3,64.0,29.89,ESE,105,0.0,0.0,99,0.00,,,0.02,Wunderground v.1.15,2013-07-02 08:02:00,
2013-07-02 04:07:00,64.5,64.2,29.89,ESE,105,0.0,1.0,99,0.00,,,0.02,Wunderground v.1.15,2013-07-02 08:07:00,
2013-07-02 04:12:00,64.5,64.2,29.89,ESE,105,0.0,0.0,99,0.00,,,0.02,Wunderground v.1.15,2013-07-02 08:12:00,
2013-07-02 04:17:00,64.5,64.2,29.90,ESE,105,0.0,0.0,99,0.00,,,0.02,Wunderground v.1.15,2013-07-02 08:17:00,
2013-07-02 04:22:00,64.5,64.2,29.90,ESE,105,0.0,2.0,99,0.00,,,0.02,Wunderground v.1.15,2013-07-02 08:22:00,
2013-07-02 04:27:00,64.5,64.2,29.90,ESE,105,0.0,3.0,99,0.00,,,0.02,Wunderground v.1.15,2013-07-02 08:27:00,
2013-07-02 04:32:00,64.5,64.2,29.90,ESE,105,0.0,1.0,99,0.00,,,0.02,Wunderground v.1.15,2013-07-02 08:32:00,
2013-07-02 04:37:00,64.3,64.0,29.90,ESE,105,2.0,5.0,99,0.00,,,0.02,Wunderground v.1.15,2013-07-02 08:37:00,
2013-07-02 04:42:00,64.3,64.0,29.90,ESE,105,0.0,1.0,99,0.00,,,0.02,Wunderground v.1.15,2013-07-02 08:42:00,
2013-07-02 04:47:00,64.3,64.0,29.90,ESE,105,0.0,1.0,99,0.00,,,0.02,Wunderground v.1.15,2013-07-02 08:47:00,
2013-07-02 04:52:00,64.3,64.0,29.90,ESE,105,0.0,0.0,99,0.00,,,0.02,Wunderground v.1.15,2013-07-02 08:52:00,
2013-07-02 04:57:00,64.3,64.0,29.90,ESE,105,0.0,0.0,99,0.00,,,0.02,Wunderground v.1.15,2013-07-02 08:57:00,
2013-07-02 05:02:00,64.3,64.3,29.90,ESE,105,0.0,0.0,100,0.00,,,0.02,Wunderground v.1.15,2013-07-02 09:02:00,
2013-07-02 05:07:00,64.3,64.3,29.90,ESE,105,0.0,0.0,100,0.00,,,0.02,Wunderground v.1.15,2013-07-02 09:07:00,
2013-07-02 05:12:00,64.3,64.3,29.90,ESE,105,0.0,0.0,100,0.00,,,0.02,Wunderground v.1.15,2013-07-02 09:12:00,
2013-07-02 05:17:00,64.3,64.3,29.90,ESE,105,0.0,0.0,100,0.00,,,0.02,Wunderground v.1.15,2013-07-02 09:17:00,
2013-07-02 05:22:00,64.3,64.3,29.90,ESE,105,0.0,0.0,100,0.00,,,0.02,Wunderground v.1.15,2013-07-02 09:22:00,
2013-07-02 05:27:00,64.3,64.3,29.90,ESE,105,0.0,0.0,100,0.00,,,0.02,Wunderground v.1.15,2013-07-02 09:27:00,
2013-07-02 05:32:00,64.3,64.3,29.91,ESE,105,0.0,0.0,100,0.00,,,0.02,Wunderground v.1.15,2013-07-02 09:32:00,
2013-07-02 05:37:00,64.3,64.3,29.91,ESE,105,0.0,0.0,100,0.00,,,0.02,Wunderground v.1.15,2013-07-02 09:37:00,
2013-07-02 05:42:00,64.3,64.3,29.91,ESE,105,0.0,1.0,100,0.00,,,0.02,Wunderground v.1.15,2013-07-02 09:42:00,
2013-07-02 05:47:00,64.3,64.3,29.91,ESE,105,0.0,4.0,100,0.00,,,0.02,Wunderground v.1.15,2013-07-02 09:47:00,
2013-07-02 05:52:00,64.3,64.3,29.91,ESE,105,3.0,3.0,100,0.00,,,0.02,Wunderground v.1.15,2013-07-02 09:52:00,
2013-07-02 05:57:00,64.3,64.3,29.91,ESE,105,0.0,3.0,100,0.00,,,0.02,Wunderground v.1.15,2013-07-02 09:57:00,
2013-07-02 06:02:00,64.2,64.2,29.91,ESE,105,0.0,1.0,100,0.00,,,0.02,Wunderground v.1.15,2013-07-02 10:02:00,
2013-07-02 06:07:00,64.3,64.3,29.91,ESE,105,0.0,1.0,100,0.00,,,0.02,Wunderground v.1.15,2013-07-02 10:07:00,
2013-07-02 06:12:00,64.3,64.3,29.91,ESE,105,0.0,0.0,100,0.00,,,0.02,Wunderground v.1.15,2013-07-02 10:12:00,
2013-07-02 06:17:00,64.3,64.3,29.92,ESE,105,0.0,1.0,100,0.00,,,0.02,Wunderground v.1.15,2013-07-02 10:17:00,
2013-07-02 06:22:00,64.3,64.3,29.92,ESE,105,0.0,0.0,100,0.00,,,0.02,Wunderground v.1.15,2013-07-02 10:22:00,
2013-07-02 06:27:00,64.3,64.3,29.92,ESE,105,0.0,0.0,100,0.00,,,0.02,Wunderground v.1.15,2013-07-02 10:27:00,
2013-07-02 06:32:00,64.3,64.3,29.93,ESE,105,0.0,0.0,100,0.00,,,0.02,Wunderground v.1.15,2013-07-02 10:32:00,
2013-07-02 06:37:00,64.3,64.3,29.93,ESE,105,0.0,0.0,100,0.00,,,0.02,Wunderground v.1.15,2013-07-02 10:37:00,
2013-07-02 06:42:00,64.5,64.5,29.93,ESE,105,0.0,0.0,100,0.00,,,0.02,Wunderground v.1.15,2013-07-02 10:42:00,
2013-07-02 06:47:00,64.5,64.5,29.93,ESE,105,0.0,0.0,100,0.00,,,0.02,Wunderground v.1.15,2013-07-02 10:47:00,
2013-07-02 06:52:00,64.5,64.5,29.93,ESE,105,0.0,0.0,100,0.00,,,0.02,Wunderground v.1.15,2013-07-02 10:52:00,
2013-07-02 06:57:00,64.5,64.5,29.93,ESE,105,0.0,1.0,100,0.00,,,0.02,Wunderground v.1.15,2013-07-02 10:57:00,
2013-07-02 07:02:00,64.5,64.5,29.93,ESE,105,0.0,2.0,100,0.00,,,0.02,Wunderground v.1.15,2013-07-02 11:02:00,
2013-07-02 07:07:00,64.5,64.5,29.93,ESE,105,0.0,2.0,100,0.00,,,0.02,Wunderground v.1.15,2013-07-02 11:07:00,
2013-07-02 07:12:00,64.5,64.5,29.93,ESE,105,0.0,0.0,100,0.00,,,0.02,Wunderground v.1.15,2013-07-02 11:12:00,
2013-07-02 07:17:00,64.5,64.5,29.94,ESE,105,0.0,0.0,100,0.00,,,0.02,Wunderground v.1.15,2013-07-02 11:17:00,
2013-07-02 07:22:00,64.5,64.5,29.94,ESE,105,0.0,0.0,100,0.00,,,0.02,Wunderground v.1.15,2013-07-02 11:22:00,
2013-07-02 07:27:00,64.5,64.5,29.94,ESE,105,0.0,0.0,100,0.00,,,0.02,Wunderground v.1.15,2013-07-02 11:27:00,
2013-07-02 07:32:00,64.5,64.5,29.94,ESE,105,0.0,1.0,100,0.00,,,0.02,Wunderground v.1.15,2013-07-02 11:32:00,
2013-07-02 07:37:00,64.5,64.5,29.94,ESE,105,0.0,3.0,100,0.00,,,0.02,Wunderground v.1.15,2013-07-02 11:37:00,
2013-07-02 07:42:00,64.5,64.5,29.94,East,86,0.0,6.0,100,0.00,,,0.02,Wunderground v.1.15,2013-07-02 11:42:00,
2013-07-02 07:47:00,64.5,64.5,29.95,East,86,0.0,6.0,100,0.00,,,0.02,Wunderground v.1.15,2013-07-02 11:47:00,
2013-07-02 07:52:00,64.5,64.5,29.95,East,86,0.0,1.0,100,0.00,,,0.02,Wunderground v.1.15,2013-07-02 11:52:00,
2013-07-02 07:57:00,64.7,64.7,29.95,East,86,0.0,3.0,100,0.00,,,0.02,Wunderground v.1.15,2013-07-02 11:57:00,
2013-07-02 08:02:00,64.7,64.7,29.95,East,86,0.0,0.0,100,0.00,,,0.02,Wunderground v.1.15,2013-07-02 12:02:00,
2013-07-02 08:07:00,64.7,64.7,29.95,East,86,0.0,1.0,100,0.00,,,0.02,Wunderground v.1.15,2013-07-02 12:07:00,
2013-07-02 08:12:00,64.8,64.8,29.95,East,86,0.0,0.0,100,0.00,,,0.02,Wunderground v.1.15,2013-07-02 12:12:00,
2013-07-02 08:17:00,65.0,65.0,29.96,East,86,0.0,0.0,100,0.00,,,0.02,Wunderground v.1.15,2013-07-02 12:17:00,
2013-07-02 08:22:00,65.2,65.2,29.96,East,86,0.0,0.0,100,0.00,,,0.02,Wunderground v.1.15,2013-07-02 12:22:00,
2013-07-02 08:27:00,65.3,65.3,29.96,East,86,0.0,0.0,100,0.00,,,0.02,Wunderground v.1.15,2013-07-02 12:27:00,
2013-07-02 08:32:00,65.6,65.6,29.96,East,86,0.0,0.0,100,0.00,,,0.02,Wunderground v.1.15,2013-07-02 12:32:00,
2013-07-02 08:37:00,65.8,65.8,29.96,East,86,0.0,0.0,100,0.00,,,0.02,Wunderground v.1.15,2013-07-02 12:37:00,
2013-07-02 08:42:00,66.0,66.0,29.96,East,86,0.0,0.0,100,0.00,,,0.02,Wunderground v.1.15,2013-07-02 12:42:00,
2013-07-02 08:47:00,66.1,66.1,29.97,East,86,0.0,0.0,100,0.00,,,0.02,Wunderground v.1.15,2013-07-02 12:47:00,
2013-07-02 08:52:00,66.3,66.3,29.97,East,86,0.0,1.0,100,0.00,,,0.02,Wunderground v.1.15,2013-07-02 12:52:00,
2013-07-02 08:57:00,66.4,66.4,29.97,East,86,0.0,1.0,100,0.00,,,0.02,Wunderground v.1.15,2013-07-02 12:57:00,
2013-07-02 09:02:00,66.6,66.6,29.97,East,86,0.0,0.0,100,0.00,,,0.02,Wunderground v.1.15,2013-07-02 13:02:00,
2013-07-02 09:07:00,66.6,66.6,29.97,East,86,1.0,2.0,100,0.00,,,0.02,Wunderground v.1.15,2013-07-02 13:07:00,
2013-07-02 09:12:00,66.6,66.6,29.97,East,86,0.0,0.0,100,0.00,,,0.02,Wunderground v.1.15,2013-07-02 13:12:00,
2013-07-02 09:17:00,66.6,66.6,29.97,East,86,0.0,1.0,100,0.00,,,0.02,Wunderground v.1.15,2013-07-02 13:17:00,
2013-07-02 09:22:00,66.6,66.6,29.97,East,86,2.0,4.0,100,0.00,,,0.02,Wunderground v.1.15,2013-07-02 13:22:00,
2013-07-02 09:27:00,66.4,66.4,29.97,East,91,2.0,6.0,100,0.00,,,0.02,Wunderground v.1.15,2013-07-02 13:27:00,
2013-07-02 09:32:00,66.4,66.4,29.98,East,91,0.0,4.0,100,0.00,,,0.02,Wunderground v.1.15,2013-07-02 13:32:00,
2013-07-02 09:37:00,66.4,66.4,29.98,East,90,2.0,6.0,100,0.00,,,0.02,Wunderground v.1.15,2013-07-02 13:37:00,
2013-07-02 09:42:00,66.4,66.4,29.98,ESE,113,3.0,5.0,100,0.00,,,0.02,Wunderground v.1.15,2013-07-02 13:42:00,
2013-07-02 09:47:00,66.3,66.3,29.98,East,96,0.0,6.0,100,0.00,,,0.02,Wunderground v.1.15,2013-07-02 13:47:00,
2013-07-02 09:52:00,66.3,66.3,29.98,East,83,1.0,1.0,100,0.00,,,0.02,Wunderground v.1.15,2013-07-02 13:52:00,
2013-07-02 09:57:00,66.3,66.3,29.98,East,95,0.0,4.0,100,0.00,,,0.02,Wunderground v.1.15,2013-07-02 13:57:00,
2013-07-02 10:02:00,66.4,66.4,29.99,East,95,0.0,2.0,100,0.00,,,0.02,Wunderground v.1.15,2013-07-02 14:02:00,
2013-07-02 10:07:00,66.6,66.6,29.99,East,95,0.0,2.0,100,0.00,,,0.02,Wunderground v.1.15,2013-07-02 14:07:00,
2013-07-02 10:12:00,66.9,66.9,29.99,East,95,1.0,1.0,100,0.00,,,0.02,Wunderground v.1.15,2013-07-02 14:12:00,
2013-07-02 10:17:00,66.8,66.8,29.99,East,95,0.0,4.0,100,0.00,,,0.02,Wunderground v.1.15,2013-07-02 14:17:00,
2013-07-02 10:22:00,66.9,66.9,29.99,East,95,1.0,3.0,100,0.00,,,0.02,Wunderground v.1.15,2013-07-02 14:22:00,
2013-07-02 10:27:00,66.9,66.9,29.99,East,95,0.0,3.0,100,0.00,,,0.02,Wunderground v.1.15,2013-07-02 14:27:00,
2013-07-02 10:32:00,66.9,66.9,29.99,East,95,0.0,1.0,100,0.00,,,0.02,Wunderground v.1.15,2013-07-02 14:32:00,
2013-07-02 10:37:00,66.9,66.9,29.99,East,95,0.0,4.0,100,0.00,,,0.02,Wunderground v.1.15,2013-07-02 14:37:00,
2013-07-02 10:42:00,66.9,66.9,29.99,East,98,5.0,5.0,100,0.00,,,0.02,Wunderground v.1.15,2013-07-02 14:42:00,
2013-07-02 10:47:00,67.3,67.3,29.99,East,101,0.0,6.0,100,0.00,,,0.02,Wunderground v.1.15,2013-07-02 14:47:00,
2013-07-02 10:52:00,67.6,67.6,29.99,East,101,1.0,3.0,100,0.00,,,0.02,Wunderground v.1.15,2013-07-02 14:52:00,
2013-07-02 10:57:00,67.6,67.6,29.99,East,101,3.0,5.0,100,0.00,,,0.02,Wunderground v.1.15,2013-07-02 14:57:00,
2013-07-02 11:02:00,67.9,67.6,29.99,East,98,2.0,3.0,99,0.00,,,0.02,Wunderground v.1.15,2013-07-02 15:02:00,
2013-07-02 11:07:00,68.3,68.0,29.99,SE,131,0.0,3.0,99,0.00,,,0.02,Wunderground v.1.15,2013-07-02 15:07:00,
2013-07-02 11:12:00,68.4,68.1,29.99,ESE,105,0.0,7.0,99,0.00,,,0.02,Wunderground v.1.15,2013-07-02 15:12:00,
2013-07-02 11:17:00,68.6,68.3,29.99,East,99,0.0,7.0,99,0.00,,,0.02,Wunderground v.1.15,2013-07-02 15:17:00,
2013-07-02 11:22:00,68.8,68.5,29.99,ESE,111,0.0,5.0,99,0.00,,,0.02,Wunderground v.1.15,2013-07-02 15:22:00,
2013-07-02 11:27:00,68.9,68.6,29.99,East,86,0.0,5.0,99,0.00,,,0.02,Wunderground v.1.15,2013-07-02 15:27:00,
2013-07-02 11:32:00,68.8,68.2,29.99,East,89,0.0,1.0,98,0.00,,,0.02,Wunderground v.1.15,2013-07-02 15:32:00,
2013-07-02 11:37:00,68.9,68.0,29.99,East,89,0.0,1.0,97,0.00,,,0.02,Wunderground v.1.15,2013-07-02 15:37:00,
2013-07-02 11:42:00,68.8,67.6,29.99,East,98,1.0,4.0,96,0.00,,,0.02,Wunderground v.1.15,2013-07-02 15:42:00,
2013-07-02 11:47:00,69.3,68.1,30.00,ESE,103,0.0,7.0,96,0.00,,,0.02,Wunderground v.1.15,2013-07-02 15:47:00,
2013-07-02 11:52:00,69.9,68.7,30.00,ESE,105,7.0,7.0,96,0.00,,,0.02,Wunderground v.1.15,2013-07-02 15:52:00,
2013-07-02 11:57:00,71.1,69.3,30.00,East,86,0.0,7.0,94,0.00,,,0.02,Wunderground v.1.15,2013-07-02 15:57:00,
2013-07-02 12:03:00,71.6,69.2,30.00,East,86,1.0,9.0,92,0.00,,,0.02,Wunderground v.1.15,2013-07-02 16:03:00,
2013-07-02 12:07:00,71.8,68.7,30.00,East,91,2.0,9.0,90,0.00,,,0.02,Wunderground v.1.15,2013-07-02 16:07:00,
2013-07-02 12:13:00,72.3,67.9,30.00,East,93,1.0,5.0,86,0.00,,,0.02,Wunderground v.1.15,2013-07-02 16:13:00,
2013-07-02 12:18:00,72.7,68.6,29.99,ESE,103,0.0,5.0,87,0.00,,,0.02,Wunderground v.1.15,2013-07-02 16:18:00,
2013-07-02 12:23:00,72.8,67.7,29.99,ESE,103,0.0,4.0,84,0.00,,,0.02,Wunderground v.1.15,2013-07-02 16:23:00,
2013-07-02 12:28:00,73.3,68.2,29.99,East,91,0.0,10.0,84,0.00,,,0.02,Wunderground v.1.15,2013-07-02 16:28:00,
2013-07-02 12:33:00,74.0,67.8,29.99,SSE,158,1.0,8.0,81,0.00,,,0.02,Wunderground v.1.15,2013-07-02 16:33:00,
2013-07-02 12:38:00,74.4,68.2,29.99,ESE,106,6.0,8.0,81,0.00,,,0.02,Wunderground v.1.15,2013-07-02 16:38:00,
2013-07-02 12:43:00,74.2,68.3,29.99,East,98,7.0,7.0,82,0.00,,,0.02,Wunderground v.1.15,2013-07-02 16:43:00,
2013-07-02 12:48:00,74.4,68.2,29.98,East,94,0.0,7.0,81,0.00,,,0.02,Wunderground v.1.15,2013-07-02 16:48:00,
2013-07-02 12:53:00,74.6,68.4,29.98,East,84,0.0,6.0,81,0.00,,,0.02,Wunderground v.1.15,2013-07-02 16:53:00,
2013-07-02 12:58:00,75.1,66.2,29.98,East,101,0.0,11.0,74,0.00,,,0.02,Wunderground v.1.15,2013-07-02 16:58:00,
2013-07-02 13:03:00,74.7,67.4,29.98,ESE,118,6.0,9.0,78,0.00,,,0.02,Wunderground v.1.15,2013-07-02 17:03:00,
2013-07-02 13:08:00,74.2,66.9,29.98,East,101,1.0,9.0,78,0.00,,,0.02,Wunderground v.1.15,2013-07-02 17:08:00,
2013-07-02 13:13:00,74.9,67.6,29.98,East,97,3.0,8.0,78,0.00,,,0.02,Wunderground v.1.15,2013-07-02 17:13:00,
2013-07-02 13:18:00,75.4,66.5,29.97,East,91,2.0,8.0,74,0.00,,,0.02,Wunderground v.1.15,2013-07-02 17:18:00,
2013-07-02 13:23:00,75.4,66.9,29.97,ESE,113,0.0,6.0,75,0.00,,,0.02,Wunderground v.1.15,2013-07-02 17:23:00,
2013-07-02 13:28:00,76.0,66.7,29.97,ESE,110,0.0,11.0,73,0.00,,,0.02,Wunderground v.1.15,2013-07-02 17:28:00,
2013-07-02 13:33:00,76.7,67.0,29.98,ESE,102,0.0,7.0,72,0.00,,,0.02,Wunderground v.1.15,2013-07-02 17:33:00,
2013-07-02 13:38:00,77.0,67.7,29.98,East,91,0.0,7.0,73,0.00,,,0.02,Wunderground v.1.15,2013-07-02 17:38:00,
2013-07-02 13:43:00,77.2,67.9,29.98,ENE,60,3.0,6.0,73,0.00,,,0.02,Wunderground v.1.15,2013-07-02 17:43:00,
2013-07-02 13:48:00,76.7,67.4,29.97,East,95,0.0,9.0,73,0.00,,,0.02,Wunderground v.1.15,2013-07-02 17:48:00,
2013-07-02 13:53:00,76.1,67.2,29.97,East,97,6.0,9.0,74,0.00,,,0.02,Wunderground v.1.15,2013-07-02 17:53:00,
2013-07-02 13:58:00,76.3,66.6,29.97,East,94,4.0,10.0,72,0.00,,,0.02,Wunderground v.1.15,2013-07-02 17:58:00,
2013-07-02 14:03:00,76.7,67.0,29.98,East,82,2.0,9.0,72,0.00,,,0.02,Wunderground v.1.15,2013-07-02 18:03:00,
2013-07-02 14:08:00,77.2,67.5,29.98,East,92,6.0,9.0,72,0.00,,,0.02,Wunderground v.1.15,2013-07-02 18:08:00,
2013-07-02 14:13:00,75.8,66.5,29.98,ESE,110,0.0,4.0,73,0.00,,,0.02,Wunderground v.1.15,2013-07-02 18:13:00,
2013-07-02 14:18:00,75.8,67.3,29.98,East,99,0.0,6.0,75,0.00,,,0.02,Wunderground v.1.15,2013-07-02 18:18:00,
2013-07-02 14:23:00,76.3,67.4,29.98,East,99,0.0,1.0,74,0.00,,,0.02,Wunderground v.1.15,2013-07-02 18:23:00,
2013-07-02 14:28:00,77.2,67.1,29.98,ESE,110,2.0,10.0,71,0.00,,,0.02,Wunderground v.1.15,2013-07-02 18:28:00,
2013-07-02 14:33:00,76.7,67.8,29.97,ESE,118,4.0,7.0,74,0.00,,,0.02,Wunderground v.1.15,2013-07-02 18:33:00,
2013-07-02 14:38:00,76.7,68.6,29.97,ESE,117,0.0,7.0,76,0.00,,,0.02,Wunderground v.1.15,2013-07-02 18:38:00,
2013-07-02 14:43:00,76.5,66.8,29.97,SE,128,3.0,10.0,72,0.00,,,0.02,Wunderground v.1.15,2013-07-02 18:43:00,
2013-07-02 14:48:00,76.0,66.7,29.97,East,96,0.0,10.0,73,0.00,,,0.02,Wunderground v.1.15,2013-07-02 18:48:00,
2013-07-02 14:53:00,76.5,67.6,29.97,East,84,5.0,7.0,74,0.00,,,0.02,Wunderground v.1.15,2013-07-02 18:53:00,
2013-07-02 14:58:00,76.3,67.0,29.97,East,101,3.0,7.0,73,0.00,,,0.02,Wunderground v.1.15,2013-07-02 18:58:00,
2013-07-02 15:03:00,76.1,67.6,29.97,East,94,0.0,3.0,75,0.00,,,0.02,Wunderground v.1.15,2013-07-02 19:03:00,
2013-07-02 15:08:00,75.8,67.3,29.97,East,94,0.0,4.0,75,0.00,,,0.02,Wunderground v.1.15,2013-07-02 19:08:00,
2013-07-02 15:13:00,75.6,67.5,29.97,East,94,0.0,1.0,76,0.00,,,0.02,Wunderground v.1.15,2013-07-02 19:13:00,
2013-07-02 15:18:00,75.6,67.9,29.97,East,94,0.0,1.0,77,0.00,,,0.02,Wunderground v.1.15,2013-07-02 19:18:00,
2013-07-02 15:23:00,74.0,67.1,29.97,West,276,0.0,6.0,79,1.08,,,0.05,Wunderground v.1.15,2013-07-02 19:23:00,
2013-07-02 15:28:00,72.0,64.0,29.97,West,276,0.0,6.0,76,0.40,,,0.14,Wunderground v.1.15,2013-07-02 19:28:00,
2013-07-02 15:33:00,70.1,65.4,29.98,West,276,0.0,1.0,85,0.63,,,0.17,Wunderground v.1.15,2013-07-02 19:33:00,
2013-07-02 15:38:00,68.8,64.4,29.98,East,96,0.0,5.0,86,0.31,,,0.20,Wunderground v.1.15,2013-07-02 19:38:00,
2013-07-02 15:43:00,68.6,65.9,29.98,East,96,0.0,0.0,91,0.12,,,0.21,Wunderground v.1.15,2013-07-02 19:43:00,
2013-07-02 15:48:00,69.4,67.6,29.97,East,96,0.0,1.0,94,0.06,,,0.21,Wunderground v.1.15,2013-07-02 19:48:00,
2013-07-02 15:53:00,70.4,68.6,29.97,East,96,0.0,0.0,94,0.04,,,0.21,Wunderground v.1.15,2013-07-02 19:53:00,
2013-07-02 15:58:00,71.3,69.5,29.97,East,96,0.0,0.0,94,0.00,,,0.21,Wunderground v.1.15,2013-07-02 19:58:00,
2013-07-02 16:03:00,72.0,69.2,29.97,East,96,0.0,0.0,91,0.00,,,0.21,Wunderground v.1.15,2013-07-02 20:03:00,
2013-07-02 16:08:00,72.5,69.4,29.97,East,96,0.0,0.0,90,0.00,,,0.21,Wunderground v.1.15,2013-07-02 20:08:00,
2013-07-02 16:13:00,73.2,70.4,29.97,East,96,0.0,0.0,91,0.00,,,0.21,Wunderground v.1.15,2013-07-02 20:13:00,
2013-07-02 16:18:00,73.5,69.4,29.96,ENE,71,0.0,5.0,87,0.00,,,0.21,Wunderground v.1.15,2013-07-02 20:18:00,
2013-07-02 16:23:00,74.0,68.5,29.96,ENE,71,0.0,1.0,83,0.00,,,0.21,Wunderground v.1.15,2013-07-02 20:23:00,
2013-07-02 16:28:00,74.2,69.4,29.96,ENE,71,0.0,1.0,85,0.00,,,0.21,Wunderground v.1.15,2013-07-02 20:28:00,
2013-07-02 16:33:00,74.4,69.6,29.96,East,88,2.0,3.0,85,0.45,,,0.24,Wunderground v.1.15,2013-07-02 20:33:00,
2013-07-02 16:38:00,73.9,67.7,29.96,East,91,6.0,7.0,81,0.10,,,0.24,Wunderground v.1.15,2013-07-02 20:38:00,
2013-07-02 16:43:00,73.3,68.2,29.96,East,82,6.0,8.0,84,0.05,,,0.24,Wunderground v.1.15,2013-07-02 20:43:00,
2013-07-02 16:48:00,73.0,68.9,29.97,East,80,0.0,9.0,87,0.04,,,0.24,Wunderground v.1.15,2013-07-02 20:48:00,
2013-07-02 16:53:00,72.5,68.1,29.97,East,91,6.0,6.0,86,0.00,,,0.24,Wunderground v.1.15,2013-07-02 20:53:00,
2013-07-02 16:58:00,72.7,66.5,29.97,ENE,69,0.0,6.0,81,0.00,,,0.24,Wunderground v.1.15,2013-07-02 20:58:00,
2013-07-02 17:03:00,72.8,65.9,29.97,ENE,69,0.0,4.0,79,0.00,,,0.24,Wunderground v.1.15,2013-07-02 21:03:00,
2013-07-02 17:08:00,72.8,65.9,29.97,ENE,69,0.0,4.0,79,0.00,,,0.24,Wunderground v.1.15,2013-07-02 21:08:00,
2013-07-02 17:13:00,73.0,67.5,29.97,ENE,69,0.0,0.0,83,0.00,,,0.24,Wunderground v.1.15,2013-07-02 21:13:00,
2013-07-02 17:18:00,72.8,67.7,29.97,ENE,69,0.0,0.0,84,0.00,,,0.24,Wunderground v.1.15,2013-07-02 21:18:00,
2013-07-02 17:23:00,72.5,68.4,29.97,ENE,69,0.0,0.0,87,0.00,,,0.24,Wunderground v.1.15,2013-07-02 21:23:00,
2013-07-02 17:28:00,71.8,67.7,29.97,ENE,66,0.0,4.0,87,0.16,,,0.26,Wunderground v.1.15,2013-07-02 21:28:00,
2013-07-02 17:33:00,71.1,66.7,29.98,ENE,66,0.0,0.0,86,0.17,,,0.27,Wunderground v.1.15,2013-07-02 21:33:00,
2013-07-02 17:38:00,70.8,67.1,29.98,ENE,66,0.0,1.0,88,0.07,,,0.27,Wunderground v.1.15,2013-07-02 21:38:00,
2013-07-02 17:43:00,70.1,65.0,29.98,ENE,74,4.0,6.0,84,0.04,,,0.27,Wunderground v.1.15,2013-07-02 21:43:00,
2013-07-02 17:48:00,69.3,63.6,29.99,NE,56,0.0,6.0,82,0.00,,,0.27,Wunderground v.1.15,2013-07-02 21:48:00,
2013-07-02 17:53:00,68.8,62.7,29.99,NE,56,0.0,1.0,81,0.00,,,0.27,Wunderground v.1.15,2013-07-02 21:53:00,
2013-07-02 17:58:00,68.4,62.0,29.99,NE,56,0.0,1.0,80,0.00,,,0.27,Wunderground v.1.15,2013-07-02 21:58:00,
2013-07-02 18:03:00,68.8,64.4,29.99,NE,56,0.0,0.0,86,0.00,,,0.27,Wunderground v.1.15,2013-07-02 22:03:00,
2013-07-02 18:08:00,69.6,66.2,29.99,NE,56,0.0,0.0,89,0.00,,,0.27,Wunderground v.1.15,2013-07-02 22:08:00,
2013-07-02 18:13:00,70.4,66.7,29.99,NE,56,0.0,0.0,88,0.00,,,0.27,Wunderground v.1.15,2013-07-02 22:13:00,
2013-07-02 18:18:00,70.8,63.2,29.98,NE,42,0.0,0.0,77,0.00,,,0.27,Wunderground v.1.15,2013-07-02 22:18:00,
2013-07-02 18:23:00,70.9,64.4,29.98,NE,42,0.0,0.0,80,0.00,,,0.27,Wunderground v.1.15,2013-07-02 22:23:00,
2013-07-02 18:28:00,70.9,64.8,29.98,NE,42,0.0,0.0,81,0.00,,,0.27,Wunderground v.1.15,2013-07-02 22:28:00,
2013-07-02 18:33:00,69.8,65.8,29.98,ENE,78,0.0,9.0,87,0.00,,,0.27,Wunderground v.1.15,2013-07-02 22:33:00,
2013-07-02 18:38:00,69.3,65.3,29.98,ENE,78,0.0,9.0,87,0.00,,,0.27,Wunderground v.1.15,2013-07-02 22:38:00,
2013-07-02 18:43:00,69.1,63.7,29.99,ENE,78,0.0,1.0,83,0.00,,,0.27,Wunderground v.1.15,2013-07-02 22:43:00,
2013-07-02 18:48:00,69.8,64.7,29.99,ENE,78,0.0,1.0,84,0.00,,,0.27,Wunderground v.1.15,2013-07-02 22:48:00,
2013-07-02 18:53:00,69.9,64.2,29.99,ENE,78,0.0,0.0,82,0.00,,,0.27,Wunderground v.1.15,2013-07-02 22:53:00,
2013-07-02 18:58:00,70.4,65.0,29.98,ENE,78,0.0,1.0,83,0.00,,,0.27,Wunderground v.1.15,2013-07-02 22:58:00,
2013-07-02 19:03:00,71.1,66.0,29.98,ENE,78,0.0,0.0,84,0.00,,,0.27,Wunderground v.1.15,2013-07-02 23:03:00,
2013-07-02 19:08:00,71.5,65.7,29.98,ENE,78,0.0,0.0,82,0.00,,,0.27,Wunderground v.1.15,2013-07-02 23:08:00,
2013-07-02 19:13:00,71.8,66.0,29.98,ENE,78,0.0,0.0,82,0.00,,,0.27,Wunderground v.1.15,2013-07-02 23:13:00,
2013-07-02 19:18:00,72.1,67.0,29.98,ENE,78,0.0,0.0,84,0.00,,,0.27,Wunderground v.1.15,2013-07-02 23:18:00,
2013-07-02 19:23:00,72.3,67.2,29.98,ENE,78,0.0,1.0,84,0.00,,,0.27,Wunderground v.1.15,2013-07-02 23:23:00,
2013-07-02 19:28:00,72.3,67.2,29.99,ENE,78,0.0,1.0,84,0.00,,,0.27,Wunderground v.1.15,2013-07-02 23:28:00,
2013-07-02 19:29:00,72.3,67.2,29.99,ENE,78,0.0,1.0,84,0.00,,,0.27,Wunderground v.1.15,2013-07-02 23:29:00,
2013-07-02 19:34:00,72.5,67.4,29.99,ENE,78,0.0,0.0,84,0.00,,,0.27,Wunderground v.1.15,2013-07-02 23:34:00,
2013-07-02 19:39:00,72.5,67.4,29.99,ENE,78,0.0,0.0,84,0.00,,,0.27,Wunderground v.1.15,2013-07-02 23:39:00,
2013-07-02 19:44:00,72.3,67.5,29.99,ENE,78,0.0,0.0,85,0.00,,,0.27,Wunderground v.1.15,2013-07-02 23:44:00,
2013-07-02 19:49:00,72.0,66.6,29.99,ENE,78,0.0,0.0,83,0.00,,,0.27,Wunderground v.1.15,2013-07-02 23:49:00,
2013-07-02 19:54:00,72.0,66.9,29.99,ENE,78,0.0,0.0,84,0.00,,,0.27,Wunderground v.1.15,2013-07-02 23:54:00,
2013-07-02 19:59:00,72.0,66.9,29.99,ENE,78,0.0,1.0,84,0.00,,,0.27,Wunderground v.1.15,2013-07-02 23:59:00,
2013-07-02 20:01:00,72.0,66.2,29.99,ENE,78,0.0,0.0,82,0.00,,,0.27,Wunderground v.1.15,2013-07-03 00:01:00,
2013-07-02 20:06:00,72.1,67.7,29.99,ENE,78,0.0,0.0,86,0.00,,,0.27,Wunderground v.1.15,2013-07-03 00:06:00,
2013-07-02 20:11:00,72.0,66.9,29.99,ENE,78,0.0,0.0,84,0.00,,,0.27,Wunderground v.1.15,2013-07-03 00:11:00,
2013-07-02 20:16:00,72.0,66.2,29.99,ENE,78,0.0,0.0,82,0.00,,,0.27,Wunderground v.1.15,2013-07-03 00:16:00,
2013-07-02 20:21:00,72.1,66.6,29.99,ENE,78,0.0,0.0,83,0.00,,,0.27,Wunderground v.1.15,2013-07-03 00:21:00,
2013-07-02 20:23:00,72.1,67.0,29.99,ENE,78,0.0,0.0,84,0.00,,,0.27,Wunderground v.1.15,2013-07-03 00:23:00,
2013-07-02 20:24:00,72.1,67.3,29.99,ENE,78,0.0,0.0,85,0.00,,,0.27,Wunderground v.1.15,2013-07-03 00:24:00,
2013-07-02 20:28:00,72.0,66.2,29.99,ENE,78,0.0,0.0,82,0.00,,,0.27,Wunderground v.1.15,2013-07-03 00:28:00,
2013-07-02 20:33:00,72.0,66.6,30.00,NE,35,0.0,1.0,83,0.00,,,0.27,Wunderground v.1.15,2013-07-03 00:33:00,
2013-07-02 20:38:00,71.6,66.5,30.00,NNW,344,0.0,1.0,84,0.00,,,0.27,Wunderground v.1.15,2013-07-03 00:38:00,
2013-07-02 20:43:00,71.5,66.4,30.01,NNW,344,0.0,0.0,84,0.00,,,0.27,Wunderground v.1.15,2013-07-03 00:43:00,
2013-07-02 20:48:00,71.3,65.9,30.01,NNW,344,0.0,0.0,83,0.00,,,0.27,Wunderground v.1.15,2013-07-03 00:48:00,
2013-07-02 20:53:00,71.1,66.0,30.01,NNW,344,0.0,0.0,84,0.00,,,0.27,Wunderground v.1.15,2013-07-03 00:53:00,
2013-07-02 20:58:00,71.1,66.0,30.01,NNW,344,0.0,1.0,84,0.00,,,0.27,Wunderground v.1.15,2013-07-03 00:58:00,
2013-07-02 21:00:00,71.1,66.7,30.01,NNW,344,0.0,1.0,86,0.00,,,0.27,Wunderground v.1.15,2013-07-03 01:00:00,
2013-07-02 21:03:00,70.9,65.8,30.01,NNW,344,0.0,1.0,84,0.00,,,0.27,Wunderground v.1.15,2013-07-03 01:03:00,
2013-07-02 21:08:00,70.9,65.5,30.01,NNW,344,0.0,1.0,83,0.00,,,0.27,Wunderground v.1.15,2013-07-03 01:08:00,
2013-07-02 21:09:00,70.9,65.5,30.01,NNW,344,0.0,1.0,83,0.00,,,0.27,Wunderground v.1.15,2013-07-03 01:09:00,
2013-07-02 21:14:00,71.1,65.7,30.02,NNW,344,0.0,1.0,83,0.00,,,0.27,Wunderground v.1.15,2013-07-03 01:14:00,
2013-07-02 21:19:00,71.1,65.3,30.02,NNW,344,0.0,1.0,82,0.00,,,0.27,Wunderground v.1.15,2013-07-03 01:19:00,
2013-07-02 21:24:00,71.1,66.0,30.02,NNW,344,0.0,1.0,84,0.00,,,0.27,Wunderground v.1.15,2013-07-03 01:24:00,
2013-07-02 21:26:00,71.1,66.0,30.02,NNW,344,0.0,1.0,84,0.00,,,0.27,Wunderground v.1.15,2013-07-03 01:26:00,
2013-07-02 21:31:00,71.1,66.0,30.02,NNW,344,0.0,0.0,84,0.00,,,0.27,Wunderground v.1.15,2013-07-03 01:31:00,
2013-07-02 21:36:00,70.9,65.8,30.02,NNW,344,0.0,1.0,84,0.00,,,0.27,Wunderground v.1.15,2013-07-03 01:36:00,
2013-07-02 21:41:00,70.9,65.5,30.02,NNW,340,0.0,1.0,83,0.00,,,0.27,Wunderground v.1.15,2013-07-03 01:41:00,
2013-07-02 21:46:00,71.1,65.7,30.02,NNW,340,0.0,1.0,83,0.00,,,0.27,Wunderground v.1.15,2013-07-03 01:46:00,
2013-07-02 21:49:00,70.9,65.5,30.02,NNW,340,0.0,1.0,83,0.00,,,0.27,Wunderground v.1.15,2013-07-03 01:49:00,
2013-07-02 21:50:00,70.9,65.5,30.02,NNW,340,0.0,0.0,83,0.00,,,0.27,Wunderground v.1.15,2013-07-03 01:50:00,
2013-07-02 21:55:00,71.1,65.7,30.02,NNW,340,0.0,0.0,83,0.00,,,0.27,Wunderground v.1.15,2013-07-03 01:55:00,
2013-07-02 22:00:00,70.9,65.8,30.02,NNW,340,0.0,3.0,84,0.00,,,0.27,Wunderground v.1.15,2013-07-03 02:00:00,
2013-07-02 22:06:00,70.9,65.8,30.02,NNW,340,0.0,3.0,84,0.00,,,0.27,Wunderground v.1.15,2013-07-03 02:06:00,
2013-07-02 22:11:00,70.9,65.8,30.02,NNW,340,0.0,1.0,84,0.00,,,0.27,Wunderground v.1.15,2013-07-03 02:11:00,
2013-07-02 22:16:00,70.9,65.8,30.02,NNW,340,0.0,1.0,84,0.00,,,0.27,Wunderground v.1.15,2013-07-03 02:16:00,
2013-07-02 22:21:00,71.1,66.0,30.02,NW,326,2.0,3.0,84,0.00,,,0.27,Wunderground v.1.15,2013-07-03 02:21:00,
2013-07-02 22:26:00,71.1,65.7,30.02,NW,326,0.0,3.0,83,0.00,,,0.27,Wunderground v.1.15,2013-07-03 02:26:00,
2013-07-02 22:31:00,71.1,65.7,30.02,NW,326,0.0,1.0,83,0.00,,,0.27,Wunderground v.1.15,2013-07-03 02:31:00,
2013-07-02 22:32:00,71.1,65.7,30.02,NW,326,0.0,1.0,83,0.00,,,0.27,Wunderground v.1.15,2013-07-03 02:32:00,
2013-07-02 22:37:00,71.1,65.3,30.02,NW,326,0.0,1.0,82,0.00,,,0.27,Wunderground v.1.15,2013-07-03 02:37:00,
2013-07-02 22:42:00,71.1,65.3,30.02,NW,326,0.0,0.0,82,0.00,,,0.27,Wunderground v.1.15,2013-07-03 02:42:00,
2013-07-02 22:46:00,71.1,65.0,30.02,NW,326,0.0,0.0,81,0.00,,,0.27,Wunderground v.1.15,2013-07-03 02:46:00,
2013-07-02 22:51:00,71.3,65.2,30.02,NW,326,0.0,0.0,81,0.00,,,0.27,Wunderground v.1.15,2013-07-03 02:51:00,
2013-07-02 22:56:00,71.3,65.2,30.02,NW,326,0.0,0.0,81,0.00,,,0.27,Wunderground v.1.15,2013-07-03 02:56:00,
2013-07-02 23:01:00,71.1,65.0,30.02,NW,326,0.0,3.0,81,0.00,,,0.27,Wunderground v.1.15,2013-07-03 03:01:00,
2013-07-02 23:02:00,71.1,65.0,30.02,NW,326,0.0,3.0,81,0.00,,,0.27,Wunderground v.1.15,2013-07-03 03:02:00,
2013-07-02 23:07:00,71.3,64.8,30.02,NW,326,0.0,3.0,80,0.00,,,0.27,Wunderground v.1.15,2013-07-03 03:07:00,
2013-07-02 23:12:00,71.3,65.5,30.02,NNW,332,0.0,0.0,82,0.00,,,0.27,Wunderground v.1.15,2013-07-03 03:12:00,
2013-07-02 23:18:00,69.9,66.2,30.03,ENE,63,4.0,9.0,88,0.00,,,0.27,Wunderground v.1.15,2013-07-03 03:18:00,
2013-07-02 23:21:00,69.3,66.6,30.03,ENE,66,0.0,3.0,91,0.00,,,0.27,Wunderground v.1.15,2013-07-03 03:21:00,
2013-07-02 23:26:00,69.1,67.0,30.03,ENE,66,0.0,3.0,93,0.00,,,0.27,Wunderground v.1.15,2013-07-03 03:26:00,
2013-07-02 23:31:00,68.9,67.1,30.04,ENE,66,0.0,0.0,94,0.00,,,0.27,Wunderground v.1.15,2013-07-03 03:31:00,
2013-07-02 23:35:00,68.9,67.1,30.04,ENE,66,0.0,0.0,94,0.00,,,0.27,Wunderground v.1.15,2013-07-03 03:35:00,
2013-07-02 23:39:00,68.8,66.7,30.04,ENE,66,0.0,0.0,93,0.00,,,0.27,Wunderground v.1.15,2013-07-03 03:39:00,
2013-07-02 23:44:00,68.6,66.8,30.04,ENE,66,0.0,0.0,94,0.00,,,0.27,Wunderground v.1.15,2013-07-03 03:44:00,
2013-07-02 23:49:00,68.4,66.6,30.04,ENE,66,0.0,0.0,94,0.00,,,0.27,Wunderground v.1.15,2013-07-03 03:49:00,
2013-07-02 23:54:00,68.4,66.6,30.04,ENE,66,0.0,0.0,94,0.00,,,0.27,Wunderground v.1.15,2013-07-03 03:54:00,
2013-07-02 23:59:00,68.3,66.5,30.03,ENE,66,0.0,0.0,94,0.00,,,0.27,Wunderground v.1.15,2013-07-03 03:59:00,